Location: San Gennaro Vesuviano
(40.8833°N, 14.5333°E)
Time: 11:36:23
(UTC+00:00)

IRIDIUM 106 - Pass Details

Date: 22 April 2021
Orbit: 776 x 779 km, 86.4° (Epoch: 10 May)

Event Time Altitude Azimuth Distance (km) Brightness Sun altitude
Exits shadow 18:59:36 - 165° (SSE) 2,535 6.6 -13.1°
Reaches altitude 10° 19:00:09 10° 163° (SSE) 2,322 6.4 -13.1°
Maximum altitude 19:05:12 53° 88° (E) 949 4.5 -14.0°
Drops below altitude 10° 19:10:16 10° 12° (NNE) 2,337 7.1 -14.8°
Sets 19:12:40 0° 8° (N) 3,268 7.9 -15.2°
